星链-3113 (STARLINK-3113 )

导读 | 星芒AI

STARLINK-3113 是 SpaceX Starlink 卫星互联网项目中的一颗低轨卫星,属于第 11 批部署的 Starlink 卫星群。该卫星采用先进的通信技术,旨在为全球用户提供高速、低延迟的互联网服务。它运行在约 550 公里的轨道高度,配备可展开的太阳能电池板和激光通信终端,以增强网络连接的稳定性和效率。作为 Starlink 计划的一部分,STARLINK-3113 有助于扩大卫星互联网的覆盖范围,特别是在偏远和网络基础设施薄弱的地区。

基本信息
目录编号:
49735
目录名称:
STARLINK-3113
国际标识:
2021-115M
轨道中心:
EARTH
卫星名称:
星链-3113
卫星全名:
星链-3113 (STARLINK-3113 )
卫星状态:
在轨 (已飞行1478 天)
发射日期:
2021-12-02 UTC
国别 :
美国 (US)
星等 :
--
轨道信息
数据来源 国际轨道数据
星历时间: 2025-12-19T00:41:49+0800
1天前
查看轨道信息
半长轴: 6917.885km
偏心率: 0.0001297
轨道倾角: 53.216°
近地点辐角 101.796°
升交点赤经 162.599°
平近点角 258.318°
近地点: 538.852km
远地点: 540.648km
周期: 95.438分钟
每日圈数: 15.088386
详细信息
固有亮度:
5
最大亮度:
2.5
卫星平台:
Starlink v1.5
覆盖范围:
全球
运营商:
太空探索技术公司
运营商所在国:
美国
制造商(研发单位):
太空探索技术公司
制造商所在国:
美国
使用方式:
暂无
卫星简介
星链(Starlink)计划是由太空探索技术公司(SpaceX)提出的一个巨型低轨卫星互联网星座项目,计划在2019年至2024年间在太空搭建由约1.2万颗卫星组成的“星链”网络,其中1584颗将部署在地球上空550千米处的近地轨道,并从2020年开始工作。该卫星仍在工作。
2D轨道图
3D轨道图
轨道高度分析图
轨道倾角分析图
轨道综合分析图
查看轨道综合分析图